TimeCDT,TemperatureF,Dew PointF,Humidity,Sea Level PressureIn,VisibilityMPH,Wind Direction,Wind SpeedMPH,Gust SpeedMPH,PrecipitationIn,Events,Conditions,WindDirDegrees,DateUTC
12:55 AM,57.0,48.9,74,30.22,10.0,SE,6.9,-,N/A,,Clear,140,2011-10-09 05:55:00
1:55 AM,54.0,48.0,80,30.22,10.0,SSE,5.8,-,N/A,,Clear,150,2011-10-09 06:55:00
2:55 AM,54.0,48.9,83,30.23,10.0,SE,5.8,-,N/A,,Clear,140,2011-10-09 07:55:00
3:55 AM,53.6,50.0,88,30.23,10.0,SE,6.9,-,N/A,,Clear,130,2011-10-09 08:55:00
4:55 AM,54.0,50.0,86,30.24,10.0,SE,5.8,-,N/A,,Clear,140,2011-10-09 09:55:00
5:55 AM,53.1,50.0,89,30.25,10.0,SE,5.8,-,N/A,,Clear,140,2011-10-09 10:55:00
6:55 AM,52.0,50.0,93,30.25,10.0,Calm,Calm,-,N/A,,Clear,0,2011-10-09 11:55:00
7:55 AM,54.0,50.0,86,30.27,8.0,SE,3.5,-,N/A,,Clear,140,2011-10-09 12:55:00
8:55 AM,61.0,54.0,78,30.28,10.0,SE,8.1,-,N/A,,Clear,130,2011-10-09 13:55:00
9:55 AM,68.0,55.0,63,30.29,10.0,South,9.2,-,N/A,,Clear,170,2011-10-09 14:55:00
10:55 AM,73.9,55.0,52,30.27,10.0,South,11.5,-,N/A,,Clear,170,2011-10-09 15:55:00
11:55 AM,77.0,54.0,45,30.25,10.0,SE,9.2,-,N/A,,Clear,140,2011-10-09 16:55:00
12:55 PM,78.1,52.0,40,30.23,10.0,SSE,11.5,19.6,N/A,,Clear,150,2011-10-09 17:55:00
1:55 PM,80.1,50.0,35,30.19,10.0,SSE,10.4,21.9,N/A,,Clear,150,2011-10-09 18:55:00
2:55 PM,80.1,50.0,35,30.17,10.0,ESE,12.7,20.7,N/A,,Clear,110,2011-10-09 19:55:00
3:55 PM,80.1,50.0,35,30.15,10.0,ESE,13.8,-,N/A,,Clear,120,2011-10-09 20:55:00
4:55 PM,79.0,48.9,35,30.14,10.0,SE,13.8,23.0,N/A,,Clear,130,2011-10-09 21:55:00
5:55 PM,75.9,48.0,37,30.14,10.0,SE,9.2,-,N/A,,Clear,130,2011-10-09 22:55:00
6:55 PM,66.9,48.0,51,30.15,10.0,ESE,5.8,-,N/A,,Clear,120,2011-10-09 23:55:00
7:55 PM,66.0,48.0,52,30.15,10.0,East,6.9,-,N/A,,Clear,100,2011-10-10 00:55:00
8:55 PM,63.0,48.0,58,30.15,10.0,ESE,6.9,-,N/A,,Clear,120,2011-10-10 01:55:00
9:55 PM,62.1,48.9,62,30.15,10.0,ESE,8.1,-,N/A,,Clear,120,2011-10-10 02:55:00
10:55 PM,61.0,48.0,62,30.15,10.0,ESE,8.1,-,N/A,,Clear,120,2011-10-10 03:55:00
11:55 PM,57.9,46.9,67,30.15,10.0,SE,8.1,-,N/A,,Clear,140,2011-10-10 04:55:00